Regional Weather Roundup
Issued by NWS

Home | Current Version | Previous Version | Text Only | Print | Product List | Glossary Off
Versions: 1 2 3 4 5 6 7 8 9 10 11 12 13 14 15 16 17 18 19 20 21 22 23 24 25 26 27 28 29 30 31 32 33 34 35 36 37 38 39 40 41 42 43 44 45 46 47 48 49 50

522
ASUS44 KJAN 012303
RWRMS

MISSISSIPPI HOURLY WEATHER ROUNDUP
NATIONAL WEATHER SERVICE JACKSON MS
600 PM CDT FRI AUG 01 2014

NOTE: "FAIR: INDICATES FEW OR NO CLOUDS BELOW 12,000 FEET WITH NO
SIGNIFICANT WEATHER AND/OR OBSTRUCTIONS TO VISIBILITY.

MSZ001>002-007>008-010>013-018>021-025>028-034>036-020000-
NORTHWEST MISSISSIPPI

CITY           SKY/WX    TMP DP  RH WIND       PRES   REMARKS
CLARKSDALE     FAIR      82  66  57 NE7       30.01S
CLEVELAND      CLOUDY    78  69  73 CALM      30.00S
GREENWOOD      MOSUNNY   79  66  64 CALM      30.00S
GREENVILLE     CLOUDY    78  68  71 E3        29.99S
GRENADA        FAIR      82  61  47 CALM      30.00S
OLIVE BRANCH   PTSUNNY   81  64  57 E5        30.02F
OXFORD         FAIR      82  64  54 N5        30.02F
TUNICA         CLEAR     81  64  57 E3        30.01F
$$

MSZ003>006-009-014>017-022>024-029>033-037>039-020000-
NORTHEAST MISSISSIPPI

CITY           SKY/WX    TMP DP  RH WIND       PRES   REMARKS
BELMONT        FAIR      83  68  61 NE7       30.01S
COLUMBUS AFB   PTSUNNY   80  70  71 NW5       29.99S
CORINTH        FAIR      82  64  54 NE8       30.01S
GOLDN TRIANGLE PTSUNNY   84  66  54 N6        29.99F
STARKVILLE     FAIR      81  68  65 CALM      29.99S
TUPELO         SUNNY     85  66  53 NE7       29.99F
$$

MSZ040-058-020000-
CENTRAL MISSISSIPPI

CITY           SKY/WX    TMP DP  RH WIND       PRES   REMARKS
JACKSON INTL   PTSUNNY   79  65  62 CALM      29.99F
JACKSON HAWKNS LGT RAIN  77  67  71 E5        29.99F
MERIDIAN KEY   CLOUDY    79  67  66 W5        30.00S
MERIDIAN NAS   CLOUDY    82  68  62 W8        29.99R
RAYMOND        LGT RAIN  77  72  83 CALM      29.99S
VICKSBURG      LGT RAIN  73  70  90 SE9       29.98F FOG
$$

MSZ059>079-020000-
SOUTH MISSISSIPPI

CITY           SKY/WX    TMP DP  RH WIND       PRES   REMARKS
BROOKHAVEN     MOCLDY    73  72  94 CALM      30.01F FOG
COLUMBIA       FAIR      77  70  78 CALM      29.97F
HATTIESBURG    CLOUDY    81  68  64 CALM      30.00F
MCCOMB         PTSUNNY   74  70  87 E3        29.99F
NATCHEZ        CLOUDY    75  72  88 SE9       29.97S
PINE BELT      CLOUDY    79  66  65 NE6       30.01F
$$

MSZ080>082-020000-
COASTAL MISSISSIPPI

CITY           SKY/WX    TMP DP  RH WIND       PRES   REMARKS
BAY ST LOUIS   SUNNY    N/A N/A N/A CALM      29.97
BILOXI         CLOUDY    82  68  62 E1        29.97F
PASCAGOULA     CLOUDY    82  68  62 CALM      29.98S
GULFPORT       CLOUDY    84  70  62 CALM      29.97F
$$



USA.gov is the U.S. government's official web portal to all federal, state and local government web resources and services.